Regional Weather Roundup
Issued by NWS

Home | Current Version | Previous Version | Graphics & Text | Print | Product List | Glossary On
Versions: 1 2 3 4 5 6 7 8 9 10 11 12 13 14 15 16 17 18 19 20 21 22 23 24 25 26 27 28 29 30 31 32 33 34 35 36 37 38 39 40 41 42 43 44 45 46 47 48 49 50
000
ASUS43 KBIS 171410
RWRND

NORTH DAKOTA REGIONAL WEATHER ROUNDUP
NATIONAL WEATHER SERVICE BISMARCK ND
800 AM CST FRI NOV 17 2017

NOTE: "FAIR" INDICATES FEW OR NO CLOUDS BELOW 12,000 FEET WITH NO
SIGNIFICANT WEATHER AND/OR OBSTRUCTIONS TO VISIBILITY.


NDZ001>003-009>011-017-171500-
NORTHWEST NORTH DAKOTA

CITY           SKY/WX    TMP DP  RH WIND       PRES   REMARKS
WILLISTON      PTCLDY    13   9  84 SW3       29.69R
MINOT          CLEAR     16   9  74 NW9       29.68R WCI   4
MINOT AFB      CLEAR     11   6  82 W5        29.69R WCI   3
$$

NDZ018>021-031>035-040>046-171500-
SOUTHWEST NORTH DAKOTA

CITY           SKY/WX    TMP DP  RH WIND       PRES   REMARKS
BISMARCK       CLOUDY    34  27  75 N9        29.68R
DICKINSON      CLOUDY    26  21  81 W7        29.64R WCI  18
GARRISON         N/A     20  15  81 VRB3      29.68R
HETTINGER ARPT CLOUDY    31  25  78 CALM      29.66S
$$

NDZ004>008-012>016-024-026-027-054-171500-
NORTHEAST NORTH DAKOTA

CITY           SKY/WX    TMP DP  RH WIND       PRES   REMARKS
GRAND FORKS    CLOUDY    32  29  88 W8        29.61F
GRND FRKS AFB  CLOUDY    31  28  87 W7        29.61F
DEVILS LAKE    CLOUDY    20  15  81 W15       29.65R WCI   6
$$

NDZ022-023-025-028>030-036>039-047>053-171500-
SOUTHEAST NORTH DAKOTA

CITY           SKY/WX    TMP DP  RH WIND       PRES   REMARKS
FARGO          CLOUDY    34  29  82 SW6       29.63S
JAMESTOWN      CLOUDY    32  28  85 N13       29.63R
$$




USA.gov is the U.S. government's official web portal to all federal, state and local government web resources and services.